Regional Weather Roundup
Issued by NWS Cleveland, OH

Home | Current Version | Previous Version | Graphics & Text | Print | Product List | Glossary On
Versions: 1 2 3 4 5 6 7 8 9 10 11 12 13 14 15 16 17 18 19 20 21 22 23 24 25 26 27 28 29 30 31 32 33 34 35 36 37 38 39 40 41 42 43 44 45 46 47 48 49 50
386
ASUS41 KCLE 181600
RWRCLE
OHIO REGIONAL WEATHER ROUNDUP
NATIONAL WEATHER SERVICE WILMINGTON, OH
1200 PM EDT WED OCT 18 2017

NOTE: "FAIR" INDICATES FEW OR NO CLOUDS BELOW 12,000 FEET WITH NO
SIGNIFICANT WEATHER AND/OR OBSTRUCTIONS TO VISIBILITY.

OHZ001>008-015>018-024>027-034-035-043-044-181700-
   NORTHWEST OHIO

CITY           SKY/WX    TMP DP  RH WIND       PRES   REMARKS
DEFIANCE       FAIR      62  44  51 SW15      30.27S
FINDLAY        FAIR      65  43  44 SW17      30.28F
TOLEDO EXPRESS FAIR      63  45  51 SW12      30.27S
TOLEDO EXEC    FAIR      64  44  48 SW13      30.28F
LIMA           FAIR      62  44  51 S13       30.29F
$$

OHZ009>014-019>023-028>033-038-089-181700-
   NORTHEAST OHIO

CITY           SKY/WX    TMP DP  RH WIND       PRES   REMARKS
CLE-HOPKINS    FAIR      65  44  46 S8        30.32F
CLE-LAKEFRONT  FAIR      65  42  43 S12       30.29F
CUY CO. ARPT   SUNNY     66  43  42 S12       30.31F
LORAIN-ELYRIA  FAIR      64  39  39 SW12      30.30F
ASHTABULA      FAIR      64  40  41 SW13      30.32S
AKRON-CANTON   FAIR      63  42  46 S13       30.33S
WOOSTER        NOT AVBL
MANSFIELD      FAIR      64  43  46 S10       30.31F
YOUNGSTOWN     FAIR      62  42  47 S9        30.33S
$$

OHZ042-051>053-060>062-070>072-077>081-181700-
  SOUTHWEST OHIO

CITY           SKY/WX    TMP DP  RH WIND       PRES   REMARKS
CINC-COVINGTON FAIR      63  46  54 S8        30.32F
CINC-LUNKEN    FAIR      61  48  62 SW8       30.34F
HAMILTON       FAIR      65  44  46 SW8       30.33F
DAYTON         NOT AVBL
WRIGHT-PAT AFB FAIR      63  41  45 SE12      30.31F
DAYTON GENERAL FAIR      62  43  49 S9        30.31F
WILMINGTON     FAIR      63  45  51 S9        30.32F
$$

OHZ036-037-039>041-045>050-054>059-063>069-073>076-082>088-181700-
  CENTRAL AND SOUTHEAST OHIO

CITY           SKY/WX    TMP DP  RH WIND       PRES   REMARKS
COLUMBUS       FAIR      61  43  51 S9        30.33F
OSU AIRPORT    FAIR      62  45  53 S9        30.32F
BOLTON FIELD   SUNNY     63  45  51 S5        30.33F
RICKENBACK AFB NOT AVBL
NEWARK         FAIR      62  41  46 S7        30.34S
MARION         FAIR      62  42  47 SW12      30.31F
LANCASTER      FAIR      63  44  50 MISG      30.34S
ZANESVILLE     FAIR      61  41  47 S7        30.35F
NEW PHILLY     FAIR      62  44  51 VRB6      30.35F
$$




USA.gov is the U.S. government's official web portal to all federal, state and local government web resources and services.